[[{"header":{"parameterUnit":"m.s-1","parameterCategory":1,"la1":30.2991,"la2":30.254,"lo1":-89.0895,"lo2":-89.0444,"dy":0.0017,"dx":0.0017,"nx":28,"ny":28,"refTime":"2024-05-16T21:00:00:Z","depth":0,"parameterNumber":2,"parameterNumberName":"U-component_of_WINDS"},"data":[0,0,0,0,0,0,0,0,0,0,0,0,0,0,0,0,0,0,0,0,0,0,0,0,0,0,0,0,0,0,0,0,0,0,0,0,0,0,0,0,0,0,0,0,0,0,0,0,0,0,0,0,0,0,0,0,0,0,1.2419,1.2419,0,1.2423,1.2423,1.2423,1.2374,1.2372,1.2371,1.237,1.2377,1.2378,1.2379,0,0,0,0,0,0,0,0,0,0,0,0,0,1.2369,1.237,1.2419,1.2419,1.2419,1.2423,1.2423,1.2423,1.2374,1.2372,1.2371,1.2369,1.2376,1.2378,1.238,0,0,0,0,0,0,0,0,0,0,0,0,0,1.2384,1.2371,1.2419,1.2395,1.2393,1.2423,1.2423,1.2423,1.2374,1.2372,1.237,1.2368,1.2376,1.2378,1.238,1.2434,0,0,1.2386,1.2387,0,0,0,0,0,0,0,0,1.2383,1.2386,1.2398,1.2396,1.2394,1.2396,1.2408,1.2427,1.2375,1.2381,1.237,1.2367,1.2385,1.2386,1.2391,1.2434,1.2435,1.2387,1.2388,1.2389,1.239,0,0,0,0,0,0,0,1.2382,1.2385,1.242,1.2398,1.2396,1.2384,1.2384,1.2411,1.2395,1.2381,1.2377,1.2378,1.2383,1.2389,1.2391,1.2435,1.2387,1.2389,1.239,1.2391,1.2521,1.2523,0,0,0,0,0,0,1.2384,1.2385,1.242,1.242,1.2383,1.2387,1.2386,1.2397,1.2394,1.2392,1.238,1.2376,1.2387,1.2389,1.2391,1.2453,1.2389,1.2391,1.2392,1.2519,1.2522,1.2524,0,0,0,0,0,0,1.2383,1.2388,1.242,1.2402,1.2405,1.239,1.2402,1.2398,1.2404,1.2393,1.239,1.2389,1.2385,1.2388,1.2423,1.2453,1.2392,1.2394,1.2516,1.252,1.2523,1.2579,0,0,0,0,0,0,1.2382,1.2388,1.2408,1.2402,1.2406,1.2452,1.2404,1.24,1.2408,1.2403,1.2401,1.2399,1.2384,1.242,1.2425,1.2455,1.2396,1.2514,1.2518,1.2522,1.2575,1.2584,1.2592,0,0,0,0,0,1.2381,1.2425,1.2409,1.2414,1.2431,1.2454,1.2456,1.2436,1.2411,1.2431,1.2424,1.2399,1.2449,1.2424,1.243,1.246,1.2512,1.2517,1.2521,1.2571,1.2582,1.2592,0,0,0,0,0,0,1.2436,1.2424,1.2406,1.245,1.2453,1.2445,1.247,1.2449,1.2461,1.2455,1.2432,1.2432,1.2471,1.2469,1.2442,1.2512,1.2476,1.2482,1.2511,1.2522,1.2531,1.253,1.2397,0,0,0,0,0,1.2453,1.2471,1.246,1.25,1.2502,1.2486,1.2495,1.248,1.2482,1.2484,1.2479,1.2483,1.2499,1.2511,1.2525,1.2574,1.2573,1.2598,1.2606,1.2614,1.2619,1.2644,1.2654,1.254,1.254,1.254,0,0,1.2489,1.2484,1.2498,1.2511,1.2511,1.2531,1.2488,1.2511,1.2526,1.2488,1.252,1.2517,1.2519,1.2561,1.2579,1.2561,1.265,1.262,1.2626,1.2627,1.265,1.2661,1.267,1.2543,1.2542,1.2542,0,0,1.2564,1.2563,1.2595,1.2596,1.2596,1.2585,1.2593,1.2588,1.2584,1.2616,1.2587,1.2604,1.2633,1.2636,1.2641,1.2716,1.2694,1.2721,1.2767,1.2791,1.28,1.2808,1.2834,1.2843,1.2727,1.2727,1.2727,0,1.2608,1.2637,1.2614,1.2639,1.2645,1.261,1.2642,1.2645,1.2651,1.2656,1.2635,1.267,1.2669,1.2711,1.2729,1.2734,1.2742,1.2722,1.28,1.2808,1.2815,1.2839,1.2849,1.2731,1.273,1.273,1.273,0,1.2691,1.2711,1.2737,1.2742,1.2752,1.278,1.2762,1.2774,1.2758,1.2749,1.2781,1.2779,1.2792,1.2801,1.2786,1.284,1.2828,1.2804,1.2767,1.283,1.2852,1.2861,1.2735,1.2734,1.2733,1.2732,0,0,1.2802,1.2793,1.2803,1.2804,1.2802,1.2817,1.2844,1.2855,1.2866,1.2871,1.2892,1.2917,1.2894,1.29,1.2885,1.2906,1.2964,1.288,1.2879,1.2895,1.3023,1.304,1.3051,1.2949,1.2951,1.2952,1.3022,0,1.2874,1.2919,1.2898,1.2945,1.2963,1.2929,1.2952,1.2954,1.2946,1.296,1.2952,1.2969,1.2938,1.2941,1.2961,1.2953,1.299,1.2948,1.2969,1.297,1.2969,1.3063,1.3082,1.3148,1.3031,1.3032,1.3033,0,1.2965,1.2972,1.302,1.3013,1.302,1.3041,1.3049,1.3063,1.3064,1.3056,1.3062,1.3042,1.3067,1.3031,1.3066,1.3038,1.3045,1.3043,1.3045,1.3046,1.3005,1.3066,1.3168,1.3178,1.3047,1.3046,1.3045,0,1.304,1.3062,1.3093,1.3095,1.3088,1.3103,1.3101,1.3099,1.3107,1.3114,1.3119,1.313,1.3136,1.3145,1.3128,1.3103,1.3165,1.3127,1.3159,1.316,1.3174,1.3173,1.3278,1.318,1.318,1.3179,1.3179,0,1.3122,1.3153,1.3126,1.3145,1.3178,1.3154,1.3188,1.3182,1.3181,1.3198,1.317,1.3188,1.3164,1.3179,1.3166,1.3197,1.32,1.3195,1.3191,1.3197,1.3197,1.3201,1.3196,1.3182,1.3181,1.3181,1.318,0,1.3211,1.3195,1.3226,1.3216,1.3214,1.3239,1.3231,1.3248,1.3238,1.326,1.3264,1.3248,1.3264,1.3248,1.3264,1.3255,1.3295,1.3285,1.3295,1.3292,1.3324,1.3321,1.3435,1.3449,1.3342,1.3343,1.3344,0,1.3265,1.3287,1.3279,1.3288,1.3287,1.3303,1.331,1.3287,1.3296,1.3298,1.3315,1.3328,1.3338,1.3365,1.3355,1.3366,1.3356,1.3395,1.3358,1.3362,1.3356,1.3354,1.3356,1.3403,1.3404,1.3405,1.3406,0,1.3361,1.3351,1.3362,1.337,1.3379,1.3385,1.3388,1.3397,1.3374,1.3385,1.34,1.3408,1.3422,1.3436,1.3444,1.3442,1.342,1.3418,1.3425,1.3432,1.3436,1.3433,1.3315,1.3415,1.3414,1.3414,1.3413,1.3413,1.3433,1.3451,1.3448,1.3461,1.346,1.3464,1.3479,1.347,1.3482,1.3492,1.3478,1.3497,1.3496,1.3504,1.3505,1.3519,1.3503,1.3515,1.3518,1.3521,1.3525,1.3434,1.3521,1.3521,1.3521,1.352,1.352,0,1.3527,1.3523,1.3535,1.354,1.355,1.3527,1.3529,1.3539,1.3556,1.3556,1.3566,1.3583,1.3596,1.3586,1.3597,1.361,1.3601,1.3614,1.3612,1.3612,1.354,1.3531,1.3622,1.3622,1.3622,1.3622,1.3622,1.3622,1.3577,1.3606,1.3596,1.3623,1.3619,1.3636,1.364,1.3642,1.3642,1.3663,1.3672,1.3666,1.3662,1.3672,1.3683,1.368,1.3685,1.3702,1.3695,1.3628,1.3618,1.3608,1.36,1.3703,1.3703,1.3766,1.3767,1.3767]},{"header":{"parameterUnit":"m.s-1","parameterCategory":1,"la1":30.2991,"la2":30.254,"lo1":-89.0895,"lo2":-89.0444,"dy":0.0017,"dx":0.0017,"nx":28,"ny":28,"refTime":"2024-05-16T21:00:00:Z","depth":0,"parameterNumber":3,"parameterNumberName":"V-component_of_WINDS"},"data":[0,0,0,0,0,0,0,0,0,0,0,0,0,0,0,0,0,0,0,0,0,0,0,0,0,0,0,0,0,0,0,0,0,0,0,0,0,0,0,0,0,0,0,0,0,0,0,0,0,0,0,0,0,0,0,0,0,0,3.2454,3.2455,0,3.2494,3.2494,3.2495,3.2456,3.2454,3.2452,3.2451,3.2489,3.2492,3.2494,0,0,0,0,0,0,0,0,0,0,0,0,0,3.2341,3.2343,3.2454,3.2455,3.2455,3.2494,3.2494,3.2495,3.2456,3.2454,3.2452,3.245,3.2488,3.2491,3.2494,0,0,0,0,0,0,0,0,0,0,0,0,0,3.2386,3.2344,3.2454,3.244,3.2439,3.2494,3.2494,3.2495,3.2456,3.2454,3.2452,3.2449,3.2488,3.2491,3.2495,3.2564,0,0,3.2506,3.2508,0,0,0,0,0,0,0,0,3.2384,3.239,3.2442,3.2441,3.244,3.2467,3.2468,3.2518,3.2457,3.245,3.2451,3.2448,3.2484,3.2488,3.25,3.2566,3.2567,3.2506,3.2509,3.251,3.2511,0,0,0,0,0,0,0,3.238,3.2388,3.247,3.2443,3.2442,3.2431,3.2435,3.2478,3.2479,3.245,3.2447,3.2453,3.2483,3.2497,3.2501,3.2568,3.2506,3.2509,3.2512,3.2513,3.2691,3.2693,0,0,0,0,0,0,3.2379,3.2386,3.2468,3.2471,3.2406,3.2435,3.2439,3.2461,3.2479,3.2479,3.2455,3.2451,3.2491,3.2496,3.2502,3.2584,3.251,3.2514,3.2516,3.2689,3.2692,3.2694,0,0,0,0,0,0,3.2377,3.2387,3.2467,3.2428,3.2437,3.2439,3.2464,3.2463,3.2477,3.2482,3.2482,3.2469,3.249,3.2497,3.2549,3.2585,3.2515,3.2519,3.2686,3.269,3.2693,3.2748,0,0,0,0,0,0,3.2374,3.2386,3.2414,3.2429,3.2439,3.2514,3.2466,3.2466,3.2484,3.2479,3.2495,3.2496,3.2488,3.2543,3.2552,3.2588,3.2521,3.2682,3.2687,3.2692,3.2743,3.2753,3.2762,0,0,0,0,0,3.237,3.2427,3.2415,3.2425,3.2474,3.2516,3.2522,3.2514,3.2487,3.2513,3.2517,3.2495,3.2579,3.2549,3.2559,3.2596,3.268,3.2686,3.2691,3.2739,3.2751,3.2762,0,0,0,0,0,0,3.2415,3.2429,3.2416,3.248,3.2497,3.251,3.2543,3.2527,3.2552,3.2547,3.2534,3.2538,3.2593,3.26,3.2566,3.2664,3.2625,3.2633,3.2658,3.267,3.2679,3.2677,3.2524,0,0,0,0,0,3.2433,3.2468,3.2477,3.2532,3.2542,3.2541,3.256,3.2551,3.2569,3.2576,3.2583,3.26,3.263,3.265,3.2678,3.2744,3.2746,3.2774,3.2784,3.2791,3.2799,3.2833,3.2846,3.2713,3.2713,3.2713,0,0,3.2469,3.2481,3.2504,3.2542,3.2555,3.259,3.2548,3.2587,3.2613,3.2581,3.2631,3.2637,3.2655,3.2714,3.274,3.2721,3.2836,3.2799,3.2805,3.2808,3.2841,3.2853,3.2864,3.2717,3.2716,3.2715,0,0,3.2554,3.2566,3.2614,3.2628,3.2648,3.2646,3.2658,3.2673,3.2676,3.2725,3.2703,3.2732,3.2785,3.2798,3.2812,3.2901,3.2882,3.291,3.296,3.2994,3.3005,3.3014,3.3046,3.3057,3.2917,3.2917,3.2917,0,3.2597,3.265,3.264,3.2681,3.2698,3.2672,3.272,3.2733,3.2761,3.2773,3.275,3.2815,3.2825,3.2887,3.2909,3.2921,3.2933,3.2909,3.3004,3.3013,3.3022,3.3052,3.3064,3.292,3.292,3.292,3.2919,0,3.2701,3.2739,3.2774,3.2803,3.2824,3.2868,3.2864,3.2886,3.2875,3.2876,3.2927,3.2938,3.2968,3.2982,3.2972,3.3042,3.3029,3.3006,3.2967,3.3038,3.3066,3.3077,3.2925,3.2924,3.2923,3.2922,0,0,3.2817,3.2839,3.2852,3.2865,3.2884,3.2912,3.2954,3.2984,3.3003,3.3023,3.3058,3.3102,3.308,3.3096,3.3087,3.3117,3.3187,3.309,3.309,3.3108,3.3265,3.3283,3.3297,3.3174,3.3176,3.3178,3.3263,0,3.2902,3.2977,3.2969,3.304,3.3074,3.3048,3.3085,3.31,3.3102,3.313,3.3131,3.3163,3.3132,3.3141,3.317,3.3172,3.3218,3.3166,3.3206,3.3207,3.3203,3.3311,3.3331,3.3411,3.3274,3.3276,3.3278,0,3.3013,3.3037,3.3112,3.3126,3.3139,3.3173,3.3199,3.3226,3.3243,3.3242,3.3259,3.3245,3.3286,3.3245,3.3302,3.3266,3.3282,3.3285,3.3288,3.3292,3.3247,3.3319,3.3437,3.3449,3.3295,3.3293,3.3292,0,3.309,3.3141,3.3192,3.3203,3.3221,3.3245,3.3253,3.3267,3.3286,3.3308,3.332,3.3346,3.3361,3.3381,3.3374,3.3345,3.3432,3.3391,3.3432,3.3433,3.3452,3.3451,3.3575,3.3461,3.3461,3.3461,3.3461,0,3.3187,3.3233,3.3227,3.3259,3.331,3.3299,3.335,3.3354,3.3367,3.3398,3.3377,3.3407,3.3395,3.3424,3.3418,3.3466,3.3472,3.3472,3.347,3.3475,3.3475,3.3485,3.348,3.3464,3.3463,3.3463,3.3462,0,3.3282,3.328,3.3334,3.3346,3.335,3.3388,3.3397,3.3426,3.3426,3.3466,3.3474,3.3474,3.3506,3.3501,3.3536,3.3533,3.3592,3.3583,3.3587,3.3585,3.3627,3.3623,3.3762,3.378,3.3654,3.3655,3.3656,0,3.3345,3.338,3.3396,3.3416,3.3426,3.3458,3.3477,3.3467,3.3487,3.3508,3.3535,3.3565,3.359,3.3642,3.3644,3.3671,3.3663,3.371,3.3667,3.367,3.3664,3.3663,3.3666,3.3719,3.372,3.3721,3.3722,0,3.3456,3.3453,3.3481,3.3509,3.3532,3.3553,3.3572,3.3589,3.3581,3.3604,3.3638,3.3656,3.3693,3.3724,3.3749,3.3756,3.3738,3.3736,3.3747,3.3752,3.3753,3.3754,3.3611,3.3733,3.3732,3.3731,3.373,3.373,3.3537,3.3567,3.3583,3.3615,3.3629,3.3647,3.3675,3.3678,3.3706,3.3736,3.3727,3.3765,3.378,3.3812,3.3822,3.385,3.3833,3.3849,3.3853,3.3857,3.3863,3.3748,3.3855,3.3854,3.3854,3.3854,3.3854,0,3.3647,3.3656,3.3686,3.3714,3.3738,3.3719,3.3739,3.3761,3.3795,3.381,3.3835,3.3873,3.3902,3.3906,3.3934,3.3956,3.3948,3.3964,3.3962,3.3964,3.3876,3.3864,3.3969,3.3969,3.3969,3.3969,3.3969,3.3969,3.3708,3.3758,3.3757,3.3813,3.3821,3.3859,3.3872,3.3888,3.39,3.3944,3.3969,3.3971,3.3982,3.401,3.4036,3.4036,3.4048,3.4066,3.4064,3.3982,3.397,3.3959,3.3948,3.4069,3.4069,3.4149,3.415,3.415]}]]